BAW78G YSSY-YMML

Flight info

Callsign BAW78G
Flight time N/A
Altitude 40000
Route WOL2/34L WOL H65 LEECE Q29 ML
Aircraft A359/H-SDE2E3GHIJ3J4J5LM1ORWXY/LB1D1

Departure

Time 2026-04-30 07:25
Airport Sydney Kingsford Smith International Airport (YSSY)

Arrival

Time N/A
Airport Melbourne Airport (YMML)
Time Latitude Longitude Altitude Speed Heading
2026-04-30 07:21 -33.96427 151.17896 20 ft 0 kts 124°
2026-04-30 07:23 -33.96430 151.17918 20 ft 5 kts 88°
2026-04-30 07:23 -33.96429 151.17956 20 ft 1 kts 89°
2026-04-30 07:24 -33.96424 151.18015 20 ft 11 kts 82°
2026-04-30 07:24 -33.96411 151.18060 20 ft 3 kts 38°
2026-04-30 07:24 -33.96346 151.18045 20 ft 28 kts 346°
2026-04-30 07:24 -33.95882 151.17938 21 ft 106 kts 346°
2026-04-30 07:25 -33.94933 151.17673 48 ft 165 kts 349°
2026-04-30 07:25 -33.93764 151.17328 580 ft 182 kts 349°
2026-04-30 07:25 -33.92542 151.16937 1425 ft 186 kts 341°
2026-04-30 07:25 -33.91530 151.16028 2311 ft 192 kts 311°
2026-04-30 07:26 -33.90854 151.14601 2980 ft 205 kts 300°
2026-04-30 07:26 -33.90183 151.13026 3545 ft 222 kts 301°
2026-04-30 07:26 -33.89402 151.11343 4155 ft 239 kts 303°
2026-04-30 07:26 -33.88517 151.09573 4840 ft 255 kts 304°
2026-04-30 07:27 -33.87581 151.07773 5781 ft 260 kts 304°
2026-04-30 07:27 -33.86622 151.05963 6811 ft 262 kts 303°
2026-04-30 07:27 -33.85646 151.04132 7810 ft 264 kts 302°
2026-04-30 07:27 -33.84650 151.02266 8772 ft 268 kts 302°
2026-04-30 07:28 -33.83815 151.00285 9680 ft 271 kts 288°
2026-04-30 07:28 -33.83424 150.98067 10542 ft 276 kts 273°
2026-04-30 07:28 -33.83528 150.95747 11104 ft 291 kts 258°
2026-04-30 07:28 -33.84230 150.93373 11633 ft 308 kts 242°
2026-04-30 07:29 -33.85512 150.91321 12355 ft 317 kts 225°
2026-04-30 07:29 -33.87293 150.89778 13236 ft 323 kts 208°
2026-04-30 07:29 -33.89433 150.88937 14110 ft 330 kts 192°
2026-04-30 07:29 -33.91736 150.88940 14928 ft 340 kts 174°
2026-04-30 07:30 -33.95971 150.91713 16439 ft 366 kts 138°
2026-04-30 07:30 -33.97723 150.93904 17180 ft 368 kts 142°
2026-04-30 07:30 -33.99803 150.95583 17858 ft 362 kts 163°
2026-04-30 07:31 -34.02206 150.96173 18558 ft 351 kts 187°
2026-04-30 07:31 -34.04601 150.95697 19296 ft 347 kts 199°
2026-04-30 07:31 -34.06909 150.94966 19984 ft 350 kts 200°
2026-04-30 07:31 -34.09274 150.94186 20665 ft 353 kts 200°
2026-04-30 07:32 -34.11649 150.93404 21343 ft 357 kts 201°
2026-04-30 07:32 -34.14053 150.92622 22013 ft 360 kts 201°
2026-04-30 07:32 -34.16466 150.91840 22665 ft 363 kts 201°
2026-04-30 07:32 -34.18895 150.91052 23298 ft 366 kts 201°
2026-04-30 07:33 -34.21361 150.90251 23919 ft 369 kts 201°
2026-04-30 07:33 -34.23848 150.89445 24422 ft 372 kts 201°
2026-04-30 07:33 -34.26330 150.88640 24921 ft 375 kts 201°
2026-04-30 07:33 -34.28868 150.87817 25427 ft 378 kts 202°
2026-04-30 07:34 -34.31393 150.86998 25927 ft 380 kts 202°
2026-04-30 07:34 -34.33933 150.86173 26426 ft 383 kts 202°
2026-04-30 07:34 -34.36517 150.85333 26930 ft 386 kts 202°
2026-04-30 07:34 -34.39116 150.84489 27433 ft 389 kts 202°
2026-04-30 07:35 -34.41709 150.83647 27933 ft 391 kts 202°
2026-04-30 07:35 -34.44351 150.82790 28439 ft 392 kts 202°
2026-04-30 07:35 -34.46965 150.81938 28938 ft 393 kts 202°
2026-04-30 07:35 -34.49618 150.81073 29444 ft 394 kts 203°
2026-04-30 07:36 -34.52172 150.80035 29942 ft 387 kts 211°
2026-04-30 07:36 -34.54538 150.78538 30448 ft 379 kts 219°
2026-04-30 07:36 -34.56603 150.76697 30944 ft 371 kts 227°
2026-04-30 07:36 -34.58415 150.74507 31448 ft 365 kts 234°
2026-04-30 07:37 -34.59884 150.72232 31926 ft 361 kts 238°
2026-04-30 07:37 -34.61352 150.69818 32425 ft 359 kts 239°
2026-04-30 07:37 -34.62824 150.67375 32929 ft 356 kts 239°
2026-04-30 07:37 -34.64279 150.64958 33432 ft 354 kts 239°
2026-04-30 07:38 -34.65726 150.62556 33935 ft 351 kts 239°
2026-04-30 07:38 -34.67139 150.60208 34431 ft 348 kts 239°
2026-04-30 07:38 -34.68562 150.57842 34935 ft 344 kts 239°
2026-04-30 07:38 -34.69960 150.55519 35431 ft 340 kts 239°
2026-04-30 07:39 -34.71342 150.53218 35802 ft 339 kts 239°
2026-04-30 07:39 -34.72734 150.50899 36180 ft 338 kts 239°
2026-04-30 07:39 -34.74109 150.48608 36554 ft 336 kts 239°
2026-04-30 07:39 -34.75476 150.46329 36930 ft 333 kts 239°
2026-04-30 07:40 -34.76827 150.44075 37303 ft 331 kts 239°
2026-04-30 07:40 -34.78178 150.41821 37679 ft 328 kts 239°
2026-04-30 07:40 -34.79501 150.39613 38051 ft 324 kts 239°
2026-04-30 07:40 -34.80813 150.37422 38424 ft 320 kts 239°
2026-04-30 07:41 -34.82111 150.35252 38798 ft 315 kts 239°
2026-04-30 07:41 -34.83383 150.33121 39174 ft 311 kts 240°
2026-04-30 07:41 -34.84649 150.30994 39550 ft 306 kts 240°
2026-04-30 07:41 -34.85881 150.28925 39923 ft 300 kts 240°
2026-04-30 07:42 -34.87091 150.26892 40136 ft 300 kts 240°
2026-04-30 07:42 -34.89550 150.22751 40316 ft 305 kts 240°
2026-04-30 07:43 -34.92063 150.18517 40405 ft 312 kts 240°
2026-04-30 07:43 -34.94631 150.14185 40412 ft 323 kts 240°
2026-04-30 07:44 -34.97306 150.09671 40413 ft 333 kts 240°
2026-04-30 07:44 -35.00037 150.05063 40413 ft 343 kts 240°
2026-04-30 07:45 -35.02869 150.00275 40413 ft 353 kts 240°
2026-04-30 07:45 -35.05763 149.95371 40413 ft 363 kts 240°
2026-04-30 07:46 -35.08743 149.90285 40413 ft 373 kts 240°
2026-04-30 07:46 -35.11811 149.85071 40413 ft 383 kts 239°
2026-04-30 07:47 -35.14964 149.79738 40413 ft 392 kts 239°
2026-04-30 07:47 -35.18156 149.74312 40413 ft 400 kts 239°
2026-04-30 07:48 -35.21419 149.68749 40413 ft 408 kts 239°
2026-04-30 07:48 -35.24759 149.63037 40413 ft 415 kts 239°
2026-04-30 07:49 -35.28118 149.57289 40412 ft 417 kts 239°
2026-04-30 07:49 -35.31460 149.51561 40412 ft 417 kts 239°
2026-04-30 07:50 -35.34830 149.45776 40412 ft 417 kts 239°
2026-04-30 07:50 -35.38185 149.40007 40412 ft 417 kts 239°
2026-04-30 07:51 -35.41532 149.34242 40416 ft 417 kts 240°
2026-04-30 07:51 -35.44868 149.28462 40413 ft 417 kts 240°
2026-04-30 07:52 -35.48224 149.22647 40412 ft 417 kts 240°
2026-04-30 07:52 -35.51570 149.16850 40412 ft 417 kts 240°
2026-04-30 07:53 -35.54906 149.11063 40412 ft 417 kts 240°
2026-04-30 07:53 -35.58254 149.05247 40412 ft 417 kts 240°
2026-04-30 07:54 -35.61589 148.99449 40412 ft 417 kts 240°
2026-04-30 07:54 -35.64945 148.93607 40412 ft 418 kts 240°
2026-04-30 07:55 -35.68273 148.87799 40412 ft 419 kts 240°
2026-04-30 07:55 -35.71621 148.81949 40412 ft 420 kts 241°
2026-04-30 07:56 -35.74966 148.76092 40412 ft 420 kts 241°
2026-04-30 07:56 -35.78326 148.70201 40412 ft 420 kts 241°
2026-04-30 07:57 -35.81677 148.64322 40412 ft 421 kts 241°
2026-04-30 07:57 -35.85007 148.58473 40412 ft 420 kts 241°
2026-04-30 07:58 -35.88345 148.52588 40412 ft 420 kts 241°
2026-04-30 07:58 -35.91668 148.46680 40412 ft 420 kts 241°
2026-04-30 07:59 -35.95009 148.40738 40412 ft 420 kts 241°
2026-04-30 07:59 -35.98318 148.34854 40412 ft 420 kts 242°
2026-04-30 08:00 -36.03286 148.25983 40413 ft 420 kts 242°
2026-04-30 08:00 -36.06595 148.20073 40413 ft 420 kts 242°
2026-04-30 08:01 -36.09922 148.14130 40413 ft 420 kts 242°
2026-04-30 08:01 -36.13249 148.08221 40412 ft 420 kts 242°
2026-04-30 08:02 -36.18239 147.99321 40412 ft 420 kts 242°
2026-04-30 08:03 -36.24843 147.87462 40412 ft 420 kts 242°
2026-04-30 08:04 -36.28148 147.81509 40412 ft 420 kts 242°
2026-04-30 08:04 -36.31446 147.75555 40412 ft 420 kts 242°
2026-04-30 08:05 -36.34718 147.69627 40412 ft 420 kts 242°
2026-04-30 08:05 -36.38002 147.63655 40412 ft 420 kts 242°
2026-04-30 08:06 -36.41289 147.57677 40412 ft 420 kts 242°
2026-04-30 08:06 -36.44563 147.51720 40412 ft 420 kts 242°
2026-04-30 08:07 -36.47850 147.45728 40287 ft 421 kts 242°
2026-04-30 08:07 -36.49485 147.42744 39996 ft 421 kts 242°
2026-04-30 08:07 -36.51119 147.39760 39618 ft 420 kts 242°
2026-04-30 08:07 -36.52754 147.36772 39244 ft 419 kts 242°
2026-04-30 08:08 -36.54403 147.33752 38869 ft 420 kts 242°
2026-04-30 08:08 -36.56024 147.30771 38496 ft 420 kts 242°
2026-04-30 08:08 -36.57655 147.27769 38121 ft 420 kts 242°
2026-04-30 08:08 -36.59275 147.24791 37748 ft 420 kts 242°
2026-04-30 08:09 -36.60918 147.21774 37371 ft 420 kts 242°
2026-04-30 08:09 -36.62549 147.18776 36997 ft 420 kts 242°
2026-04-30 08:09 -36.64177 147.15785 36622 ft 419 kts 242°
2026-04-30 08:09 -36.65808 147.12791 36246 ft 415 kts 242°
2026-04-30 08:10 -36.67430 147.09813 35867 ft 412 kts 242°
2026-04-30 08:10 -36.69019 147.06888 35494 ft 409 kts 243°
2026-04-30 08:10 -36.70595 147.03983 35181 ft 406 kts 243°
2026-04-30 08:11 -36.73750 146.98119 35116 ft 407 kts 243°
2026-04-30 08:11 -36.76900 146.92259 35113 ft 408 kts 243°
2026-04-30 08:12 -36.80061 146.86389 35113 ft 409 kts 243°
2026-04-30 08:12 -36.83237 146.80482 35113 ft 409 kts 243°
2026-04-30 08:13 -36.86385 146.74622 35113 ft 409 kts 243°
2026-04-30 08:13 -36.89555 146.68715 35113 ft 409 kts 243°
2026-04-30 08:14 -36.92722 146.62804 35112 ft 409 kts 243°
2026-04-30 08:14 -36.95878 146.56905 35112 ft 409 kts 243°
2026-04-30 08:15 -36.99049 146.50972 35112 ft 409 kts 243°
2026-04-30 08:15 -37.02198 146.45077 35113 ft 408 kts 243°
2026-04-30 08:15 -37.03771 146.42129 35009 ft 409 kts 243°
2026-04-30 08:16 -37.05346 146.39171 34628 ft 405 kts 244°
2026-04-30 08:16 -37.06890 146.36272 34254 ft 401 kts 244°
2026-04-30 08:16 -37.08433 146.33357 33879 ft 398 kts 244°
2026-04-30 08:16 -37.09949 146.30470 33503 ft 395 kts 244°
2026-04-30 08:17 -37.11445 146.27637 33129 ft 393 kts 244°
2026-04-30 08:17 -37.12959 146.24791 32752 ft 391 kts 244°
2026-04-30 08:17 -37.14456 146.21973 32376 ft 388 kts 244°
2026-04-30 08:17 -37.15950 146.19153 32134 ft 385 kts 244°
2026-04-30 08:18 -37.17434 146.16347 31901 ft 386 kts 244°
2026-04-30 08:18 -37.18911 146.13548 31581 ft 384 kts 244°
2026-04-30 08:18 -37.20370 146.10788 31207 ft 382 kts 244°
2026-04-30 08:18 -37.21837 146.08005 30829 ft 380 kts 244°
2026-04-30 08:19 -37.23293 146.05240 30451 ft 378 kts 244°
2026-04-30 08:19 -37.24732 146.02508 30076 ft 376 kts 244°
2026-04-30 08:19 -37.26181 145.99777 29697 ft 376 kts 241°
2026-04-30 08:19 -37.27977 145.97365 29315 ft 389 kts 227°
2026-04-30 08:20 -37.30317 145.95558 28936 ft 405 kts 213°
2026-04-30 08:20 -37.33084 145.94525 28555 ft 421 kts 198°
2026-04-30 08:20 -37.36043 145.94392 28178 ft 436 kts 184°
2026-04-30 08:20 -37.39027 145.95189 27804 ft 451 kts 169°
2026-04-30 08:21 -37.41929 145.96675 27436 ft 454 kts 163°
2026-04-30 08:21 -37.44814 145.98358 27057 ft 452 kts 162°
2026-04-30 08:21 -37.47634 146.00046 26682 ft 449 kts 162°
2026-04-30 08:21 -37.50410 146.01714 26311 ft 446 kts 162°
2026-04-30 08:22 -37.53221 146.03397 25932 ft 443 kts 162°
2026-04-30 08:22 -37.55967 146.05039 25560 ft 440 kts 162°
2026-04-30 08:22 -37.58750 146.06694 25181 ft 437 kts 162°
2026-04-30 08:22 -37.61480 146.08315 24807 ft 433 kts 162°
2026-04-30 08:23 -37.64175 146.09911 24435 ft 430 kts 162°
2026-04-30 08:23 -37.66863 146.11444 24055 ft 422 kts 168°
2026-04-30 08:23 -37.69663 146.12045 23659 ft 394 kts 192°
2026-04-30 08:23 -37.72200 146.11259 23286 ft 368 kts 214°
2026-04-30 08:24 -37.74269 146.09512 22909 ft 351 kts 230°
2026-04-30 08:24 -37.75802 146.07191 22531 ft 339 kts 244°
2026-04-30 08:24 -37.76749 146.04529 22152 ft 330 kts 258°
2026-04-30 08:24 -37.77097 146.01718 21776 ft 325 kts 271°
2026-04-30 08:25 -37.76844 145.98874 21395 ft 324 kts 284°
2026-04-30 08:25 -37.76010 145.96249 21016 ft 326 kts 297°
2026-04-30 08:25 -37.74639 145.93985 20640 ft 331 kts 311°
2026-04-30 08:25 -37.72881 145.92059 20265 ft 333 kts 315°
2026-04-30 08:26 -37.71100 145.90222 19891 ft 332 kts 315°
2026-04-30 08:26 -37.69310 145.88394 19515 ft 330 kts 316°
2026-04-30 08:26 -37.67536 145.86589 19141 ft 329 kts 316°
2026-04-30 08:26 -37.65770 145.84795 18768 ft 328 kts 316°
2026-04-30 08:27 -37.63999 145.82999 18392 ft 327 kts 316°
2026-04-30 08:27 -37.62238 145.81213 18018 ft 326 kts 316°
2026-04-30 08:27 -37.60481 145.79433 17643 ft 324 kts 316°
2026-04-30 08:27 -37.58726 145.77653 17266 ft 323 kts 316°
2026-04-30 08:28 -37.56968 145.75874 16888 ft 322 kts 316°
2026-04-30 08:28 -37.55249 145.74135 16517 ft 321 kts 316°
2026-04-30 08:28 -37.53498 145.72366 16139 ft 320 kts 316°
2026-04-30 08:28 -37.51779 145.70631 15765 ft 319 kts 316°
2026-04-30 08:29 -37.50058 145.68896 15391 ft 318 kts 316°
2026-04-30 08:29 -37.48427 145.67059 15003 ft 312 kts 305°
2026-04-30 08:29 -37.47413 145.64717 14629 ft 306 kts 285°
2026-04-30 08:29 -37.47162 145.62080 14251 ft 304 kts 266°
2026-04-30 08:30 -37.47695 145.59505 13870 ft 308 kts 246°
2026-04-30 08:30 -37.48840 145.57253 13504 ft 310 kts 238°
2026-04-30 08:30 -37.50106 145.55060 13127 ft 309 kts 237°
2026-04-30 08:30 -37.51372 145.52892 12753 ft 308 kts 237°
2026-04-30 08:31 -37.52640 145.50719 12375 ft 305 kts 237°
2026-04-30 08:31 -37.53892 145.48572 11998 ft 302 kts 237°
2026-04-30 08:31 -37.55112 145.46478 11627 ft 298 kts 237°